Voltar ao catálogo

ATLAS CENTAUR R/B

AtivoGTO
NORAD 8331·ROCKET BODY·🇺🇸 United States

Lançado Sep 26, 1975 de Cape Canaveral Space Force Station

Loading…

TLE

ObsoletoSource: Space-Track

Época: Sep 13, 2026, 17:47 UTC

1  8331U 75091B   26256.74098863 -.00000046  00000-0  14346-2 0  9994
2  8331  21.6928 133.3633 7198162 219.5319  55.7945  2.22312720410776

Acompanhe ATLAS CENTAUR R/B em tempo real com AllMySat

Download on the App Store